Location: Newark
(45.8667°N, 9.7333°E)
Time: 04:21:16
(UTC+00:00)

A-11 Canister half - Pass Details

Date: 29 January 2020
Orbit: 1517 x 1683 km, 47.2° (Epoch: 19 February)

Event Time Altitude Azimuth Distance (km) Brightness Sun altitude
Rises 05:29:33 0° 290° (WNW) 4,665 - -13.6°
Reaches altitude 10° 05:33:20 10° 277° (W) 3,680 - -13.0°
Exits shadow 05:34:55 14° 269° (W) 3,337 10.1 -12.7°
Maximum altitude 05:40:05 23° 230° (SW) 2,785 10.0 -11.8°
Drops below altitude 10° 05:46:54 10° 182° (S) 3,711 11.2 -10.7°
Sets 05:50:46 0° 169° (S) 4,714 11.9 -10.0°
